| time (UTC) | temp F | wind direction | speed MPH | gust MPH | rain 1hr in | rain 24hr in | rain mn in | humidity % | barometer mb |
| 20260507025401 | 54 | 128 | 0.0 | 1.0 | 0.00 | 0.01 | 0.01 | 83 | 1022.6 |
| 20260507024859 | 54 | 112 | 0.0 | 0.0 | 0.00 | 0.01 | 0.01 | 83 | 1022.9 |
| 20260507024355 | 54 | 211 | 1.0 | 1.0 | 0.00 | 0.01 | 0.01 | 83 | 1022.6 |
| 20260507023851 | 54 | 190 | 1.0 | 1.0 | 0.00 | 0.01 | 0.01 | 83 | 1022.6 |
| 20260507023348 | 54 | 258 | 1.0 | 1.0 | 0.00 | 0.01 | 0.01 | 83 | 1022.6 |
| 20260507022846 | 54 | 127 | 0.0 | 1.0 | 0.00 | 0.01 | 0.01 | 83 | 1022.6 |
| 20260507022342 | 54 | 100 | 0.0 | 0.0 | 0.00 | 0.01 | 0.01 | 82 | 1022.9 |
| 20260507021838 | 54 | 92 | 0.0 | 0.0 | 0.00 | 0.01 | 0.01 | 82 | 1022.9 |
| 20260507021333 | 54 | 125 | 0.0 | 1.0 | 0.00 | 0.01 | 0.01 | 82 | 1022.6 |
| 20260507020832 | 54 | 227 | 1.0 | 1.0 | 0.00 | 0.01 | 0.01 | 82 | 1022.6 |
| 20260507020328 | 54 | 200 | 0.0 | 2.0 | 0.00 | 0.01 | 0.01 | 82 | 1022.9 |
| 20260507015825 | 54 | 74 | 0.0 | 0.0 | 0.00 | 0.01 | 0.01 | 82 | 1022.9 |
| 20260507015323 | 54 | 130 | 1.0 | 3.0 | 0.00 | 0.01 | 0.01 | 82 | 1022.6 |
| 20260507014819 | 54 | 309 | 1.0 | 3.0 | 0.00 | 0.01 | 0.01 | 82 | 1022.9 |
| 20260507014315 | 55 | 346 | 1.0 | 2.0 | 0.00 | 0.01 | 0.01 | 81 | 1022.6 |
| 20260507013806 | 55 | 110 | 0.0 | 0.0 | 0.00 | 0.01 | 0.01 | 81 | 1022.6 |
| 20260507013304 | 55 | 246 | 0.0 | 1.0 | 0.00 | 0.01 | 0.01 | 80 | 1022.6 |
| 20260507012801 | 55 | 134 | 0.0 | 1.0 | 0.00 | 0.01 | 0.01 | 80 | 1022.6 |
| 20260507012257 | 55 | 134 | 0.0 | 1.0 | 0.00 | 0.01 | 0.01 | 79 | 1022.6 |
| 20260507011754 | 55 | 134 | 0.0 | 2.0 | 0.00 | 0.01 | 0.01 | 79 | 1022.6 |
| 20260507011251 | 55 | 134 | 0.0 | 0.0 | 0.00 | 0.01 | 0.01 | 79 | 1022.6 |
| 20260507010750 | 55 | 106 | 1.0 | 1.0 | 0.00 | 0.01 | 0.01 | 78 | 1022.6 |
| 20260507010246 | 55 | 103 | 0.0 | 1.0 | 0.00 | 0.01 | 0.01 | 79 | 1022.6 |
| 20260507005744 | 55 | 116 | 0.0 | 1.0 | 0.00 | 0.01 | 0.01 | 80 | 1022.6 |
| 20260507005240 | 55 | 167 | 1.0 | 3.0 | 0.00 | 0.01 | 0.01 | 80 | 1022.6 |
| 20260507004737 | 55 | 104 | 2.0 | 3.0 | 0.00 | 0.01 | 0.01 | 79 | 1022.9 |
| 20260507004235 | 55 | 110 | 0.0 | 3.0 | 0.00 | 0.01 | 0.01 | 79 | 1022.9 |
| 20260507003731 | 55 | 104 | 1.0 | 2.0 | 0.00 | 0.01 | 0.01 | 79 | 1022.6 |
| 20260507003226 | 56 | 175 | 4.0 | 4.0 | 0.00 | 0.01 | 0.01 | 79 | 1022.6 |
| 20260507002722 | 55 | 168 | 2.0 | 2.0 | 0.00 | 0.01 | 0.01 | 79 | 1022.6 |
| 20260507002219 | 55 | 111 | 2.0 | 3.0 | 0.00 | 0.01 | 0.01 | 80 | 1022.6 |
| 20260507001715 | 55 | 164 | 2.0 | 3.0 | 0.00 | 0.01 | 0.01 | 80 | 1022.6 |
| 20260507001213 | 55 | 116 | 1.0 | 3.0 | 0.00 | 0.01 | 0.01 | 80 | 1022.6 |
| 20260507000709 | 55 | 110 | 0.0 | 2.0 | 0.00 | 0.01 | 0.01 | 80 | 1022.3 |
| 20260507000205 | 55 | 181 | 1.0 | 2.0 | 0.00 | 0.01 | 0.01 | 80 | 1022.6 |
| 20260506235702 | 55 | 117 | 0.0 | 1.0 | 0.00 | 0.01 | 0.01 | 81 | 1022.3 |
| 20260506235157 | 56 | 117 | 2.0 | 3.0 | 0.00 | 0.01 | 0.01 | 80 | 1022.3 |
| 20260506234654 | 55 | 128 | 0.0 | 4.0 | 0.00 | 0.01 | 0.01 | 81 | 1022.3 |
| 20260506234151 | 55 | 107 | 0.0 | 2.0 | 0.00 | 0.01 | 0.01 | 81 | 1022.6 |
| 20260506233649 | 56 | 95 | 0.0 | 3.0 | 0.00 | 0.01 | 0.01 | 80 | 1022.6 |
| 20260506233145 | 55 | 101 | 0.0 | 2.0 | 0.00 | 0.01 | 0.01 | 81 | 1022.6 |
| 20260506232642 | 55 | 130 | 0.0 | 3.0 | 0.00 | 0.01 | 0.01 | 81 | 1022.6 |
| 20260506232137 | 55 | 103 | 1.0 | 1.0 | 0.00 | 0.01 | 0.01 | 81 | 1022.6 |
| 20260506231634 | 56 | 102 | 0.0 | 1.0 | 0.00 | 0.01 | 0.01 | 81 | 1022.6 |
| 20260506231133 | 55 | 121 | 1.0 | 1.0 | 0.00 | 0.01 | 0.01 | 81 | 1022.6 |
| 20260506230629 | 55 | 122 | 0.0 | 2.0 | 0.00 | 0.01 | 0.01 | 81 | 1022.6 |
| 20260506230126 | 55 | 130 | 1.0 | 2.0 | 0.00 | 0.01 | 0.01 | 80 | 1022.6 |
| 20260506225623 | 55 | 107 | 1.0 | 1.0 | 0.00 | 0.01 | 0.01 | 80 | 1022.6 |
| 20260506225119 | 55 | 111 | 1.0 | 2.0 | 0.00 | 0.01 | 0.01 | 81 | 1022.6 |
| 20260506224616 | 55 | 181 | 2.0 | 4.0 | 0.00 | 0.01 | 0.01 | 81 | 1022.6 |
| 20260506224113 | 55 | 104 | 0.0 | 1.0 | 0.00 | 0.01 | 0.01 | 81 | 1022.6 |
| 20260506223609 | 54 | 99 | 0.0 | 3.0 | 0.00 | 0.01 | 0.01 | 82 | 1022.6 |
| 20260506223105 | 54 | 103 | 2.0 | 4.0 | 0.00 | 0.01 | 0.01 | 83 | 1022.6 |
| 20260506222602 | 54 | 115 | 2.0 | 3.0 | 0.00 | 0.01 | 0.01 | 83 | 1022.6 |
| 20260506222059 | 54 | 121 | 2.0 | 4.0 | 0.00 | 0.01 | 0.01 | 83 | 1022.6 |
| 20260506221556 | 54 | 142 | 1.0 | 6.0 | 0.00 | 0.01 | 0.01 | 84 | 1022.6 |
| 20260506221054 | 54 | 175 | 5.0 | 7.0 | 0.00 | 0.01 | 0.01 | 82 | 1022.6 |
| 20260506220550 | 55 | 93 | 0.0 | 1.0 | 0.00 | 0.01 | 0.01 | 82 | 1022.6 |
| 20260506220045 | 55 | 112 | 1.0 | 1.0 | 0.00 | 0.01 | 0.01 | 82 | 1022.9 |
| 20260506215543 | 55 | 140 | 2.0 | 3.0 | 0.00 | 0.01 | 0.01 | 80 | 1022.9 |
| 20260506215038 | 56 | 108 | 0.0 | 0.0 | 0.00 | 0.01 | 0.01 | 77 | 1022.6 |
| 20260506214535 | 57 | 293 | 0.0 | 1.0 | 0.00 | 0.01 | 0.01 | 76 | 1022.6 |
| 20260506214033 | 56 | 125 | 0.0 | 2.0 | 0.00 | 0.01 | 0.01 | 76 | 1022.6 |
| 20260506213531 | 57 | 146 | 1.0 | 2.0 | 0.00 | 0.01 | 0.01 | 76 | 1022.6 |
| 20260506213028 | 57 | 214 | 1.0 | 2.0 | 0.00 | 0.01 | 0.01 | 77 | 1022.9 |
| 20260506212524 | 56 | 125 | 0.0 | 1.0 | 0.00 | 0.01 | 0.01 | 79 | 1022.9 |
| 20260506212019 | 55 | 23 | 2.0 | 3.0 | 0.00 | 0.01 | 0.01 | 78 | 1022.9 |
| 20260506211515 | 55 | 73 | 0.0 | 2.0 | 0.00 | 0.01 | 0.01 | 79 | 1022.9 |
| 20260506211013 | 55 | 81 | 3.0 | 4.0 | 0.00 | 0.01 | 0.01 | 80 | 1022.6 |
| 20260506210509 | 55 | 302 | 0.0 | 2.0 | 0.00 | 0.01 | 0.01 | 81 | 1022.6 |
| 20260506210006 | 55 | 162 | 1.0 | 2.0 | 0.00 | 0.01 | 0.01 | 82 | 1022.6 |
| 20260506205502 | 55 | 73 | 2.0 | 3.0 | 0.00 | 0.01 | 0.01 | 83 | 1022.3 |
| 20260506204957 | 54 | 246 | 0.0 | 1.0 | 0.00 | 0.01 | 0.01 | 84 | 1022.6 |
| 20260506204455 | 54 | 262 | 1.0 | 1.0 | 0.00 | 0.01 | 0.01 | 86 | 1022.6 |
| 20260506203947 | 53 | 43 | 2.0 | 3.0 | 0.00 | 0.01 | 0.01 | 86 | 1022.3 |
| 20260506203444 | 53 | 121 | 0.0 | 3.0 | 0.00 | 0.01 | 0.01 | 87 | 1022.6 |
| 20260506202941 | 54 | 168 | 1.0 | 3.0 | 0.00 | 0.01 | 0.01 | 88 | 1022.6 |
| 20260506202438 | 53 | 99 | 0.0 | 1.0 | 0.00 | 0.01 | 0.01 | 89 | 1022.6 |
| 20260506201935 | 53 | 39 | 2.0 | 3.0 | 0.00 | 0.01 | 0.01 | 89 | 1022.6 |
| 20260506201432 | 53 | 105 | 0.0 | 3.0 | 0.00 | 0.01 | 0.01 | 90 | 1022.6 |
| 20260506200929 | 52 | 90 | 1.0 | 3.0 | 0.00 | 0.01 | 0.01 | 89 | 1022.6 |
| 20260506200425 | 53 | 124 | 1.0 | 2.0 | 0.00 | 0.01 | 0.01 | 90 | 1022.6 |
| 20260506195922 | 52 | 64 | 0.0 | 3.0 | 0.00 | 0.01 | 0.01 | 90 | 1022.3 |
| 20260506195419 | 52 | 254 | 2.0 | 2.0 | 0.00 | 0.01 | 0.01 | 90 | 1022.3 |
| 20260506194915 | 52 | 339 | 2.0 | 3.0 | 0.00 | 0.01 | 0.01 | 90 | 1022.3 |
| 20260506194413 | 52 | 289 | 3.0 | 4.0 | 0.00 | 0.01 | 0.01 | 90 | 1022.3 |
| 20260506193909 | 51 | 68 | 0.0 | 3.0 | 0.00 | 0.01 | 0.01 | 91 | 1022.3 |
| 20260506193407 | 51 | 121 | 0.0 | 3.0 | 0.00 | 0.01 | 0.01 | 91 | 1022.3 |
| 20260506192903 | 51 | 45 | 1.0 | 3.0 | 0.00 | 0.01 | 0.01 | 91 | 1022.3 |
| 20260506192400 | 51 | 126 | 1.0 | 3.0 | 0.00 | 0.01 | 0.01 | 92 | 1022.3 |
| 20260506191856 | 51 | 295 | 2.0 | 3.0 | 0.00 | 0.01 | 0.01 | 92 | 1022.3 |
| 20260506191353 | 51 | 24 | 2.0 | 3.0 | 0.00 | 0.01 | 0.01 | 92 | 1022.3 |
| 20260506190850 | 52 | 86 | 0.0 | 2.0 | 0.00 | 0.01 | 0.01 | 93 | 1021.9 |
| 20260506190346 | 51 | 114 | 0.0 | 2.0 | 0.00 | 0.01 | 0.01 | 93 | 1021.9 |
| 20260506185843 | 51 | 66 | 1.0 | 2.0 | 0.00 | 0.01 | 0.01 | 93 | 1021.9 |
| 20260506185340 | 51 | 34 | 2.0 | 3.0 | 0.00 | 0.01 | 0.01 | 93 | 1021.9 |
| 20260506184837 | 50 | 330 | 2.0 | 7.0 | 0.00 | 0.01 | 0.01 | 93 | 1021.9 |
| 20260506184334 | 50 | 97 | 1.0 | 1.0 | 0.00 | 0.01 | 0.01 | 93 | 1021.9 |
| 20260506183832 | 50 | 79 | 2.0 | 3.0 | 0.00 | 0.01 | 0.01 | 93 | 1021.9 |
| 20260506183327 | 50 | 158 | 2.0 | 3.0 | 0.00 | 0.01 | 0.01 | 93 | 1022.3 |
| 20260506182825 | 50 | 9 | 1.0 | 4.0 | 0.00 | 0.01 | 0.01 | 93 | 1021.9 |
| 20260506182321 | 50 | 95 | 0.0 | 3.0 | 0.00 | 0.01 | 0.01 | 93 | 1021.9 |
| 20260506181819 | 50 | 98 | 2.0 | 3.0 | 0.00 | 0.01 | 0.01 | 94 | 1021.9 |
| 20260506181317 | 50 | 48 | 2.0 | 2.0 | 0.00 | 0.01 | 0.01 | 94 | 1021.9 |
| 20260506180814 | 50 | 70 | 1.0 | 4.0 | 0.00 | 0.01 | 0.01 | 94 | 1021.9 |
| 20260506180310 | 50 | 81 | 2.0 | 6.0 | 0.00 | 0.01 | 0.01 | 94 | 1021.9 |
| 20260506175806 | 50 | 281 | 3.0 | 4.0 | 0.00 | 0.01 | 0.01 | 94 | 1021.9 |
| 20260506175306 | 51 | 66 | 0.0 | 2.0 | 0.00 | 0.01 | 0.01 | 94 | 1021.9 |
| 20260506174801 | 50 | 90 | 1.0 | 3.0 | 0.00 | 0.01 | 0.01 | 94 | 1021.6 |
| 20260506174258 | 50 | 17 | 2.0 | 3.0 | 0.00 | 0.01 | 0.01 | 94 | 1021.6 |
| 20260506173755 | 50 | 4 | 0.0 | 2.0 | 0.00 | 0.01 | 0.01 | 94 | 1021.6 |
| 20260506173252 | 50 | 4 | 0.0 | 2.0 | 0.00 | 0.01 | 0.01 | 94 | 1021.6 |
| 20260506172749 | 50 | 57 | 2.0 | 2.0 | 0.00 | 0.01 | 0.01 | 94 | 1021.6 |
| 20260506172245 | 50 | 98 | 0.0 | 2.0 | 0.00 | 0.01 | 0.01 | 95 | 1021.6 |
| 20260506171743 | 50 | 128 | 1.0 | 1.0 | 0.00 | 0.01 | 0.01 | 95 | 1021.6 |
| 20260506171240 | 50 | 75 | 1.0 | 2.0 | 0.00 | 0.01 | 0.01 | 95 | 1021.6 |
| 20260506170738 | 50 | 94 | 0.0 | 1.0 | 0.00 | 0.01 | 0.01 | 95 | 1021.3 |
| 20260506170234 | 50 | 100 | 0.0 | 3.0 | 0.00 | 0.01 | 0.01 | 95 | 1021.3 |
| 20260506165732 | 50 | 113 | 0.0 | 1.0 | 0.00 | 0.01 | 0.01 | 95 | 1020.9 |
| 20260506165229 | 50 | 86 | 0.0 | 2.0 | 0.00 | 0.01 | 0.01 | 95 | 1021.3 |
| 20260506164726 | 50 | 116 | 0.0 | 0.0 | 0.00 | 0.01 | 0.01 | 95 | 1021.3 |
| 20260506164223 | 50 | 104 | 0.0 | 0.0 | 0.00 | 0.01 | 0.01 | 95 | 1021.3 |
| 20260506163719 | 50 | 14 | 1.0 | 2.0 | 0.00 | 0.01 | 0.01 | 95 | 1021.3 |
| 20260506163209 | 50 | 297 | 2.0 | 3.0 | 0.07 | 0.01 | 0.01 | 95 | 1021.3 |
| 20260506162705 | 49 | 101 | 0.0 | 2.0 | 0.00 | 0.00 | 0.00 | 95 | 1021.3 |
| 20260506162203 | 50 | 94 | 0.0 | 1.0 | 0.00 | 0.00 | 0.00 | 95 | 1021.3 |
| 20260506161700 | 50 | 85 | 0.0 | 2.0 | 0.00 | 0.00 | 0.00 | 95 | 1021.6 |
| 20260506161156 | 50 | 74 | 2.0 | 4.0 | 0.00 | 0.00 | 0.00 | 95 | 1021.6 |
| 20260506160654 | 50 | 96 | 1.0 | 3.0 | 0.00 | 0.00 | 0.00 | 95 | 1021.6 |
| 20260506160151 | 50 | 103 | 0.0 | 0.0 | 0.00 | 0.00 | 0.00 | 95 | 1021.6 |
| 20260506155649 | 51 | 77 | 1.0 | 2.0 | 0.00 | 0.00 | 0.00 | 95 | 1021.6 |
| 20260506155146 | 51 | 80 | 1.0 | 2.0 | 0.00 | 0.00 | 0.00 | 95 | 1021.3 |
| 20260506153248 | 51 | 97 | 0.0 | 0.0 | 0.00 | 0.00 | 0.00 | 95 | 1021.3 |
| 20260506152745 | 51 | 109 | 0.0 | 0.0 | 0.00 | 0.00 | 0.00 | 95 | 1021.3 |
| 20260506152242 | 51 | 102 | 0.0 | 0.0 | 0.00 | 0.00 | 0.00 | 95 | 1020.9 |
| 20260506151741 | 50 | 99 | 0.0 | 0.0 | 0.00 | 0.00 | 0.00 | 95 | 1020.9 |
| 20260506151237 | 50 | 109 | 0.0 | 0.0 | 0.00 | 0.00 | 0.00 | 95 | 1020.9 |
| 20260506150734 | 50 | 105 | 0.0 | 1.0 | 0.00 | 0.00 | 0.00 | 95 | 1020.9 |
| 20260506150231 | 50 | 102 | 0.0 | 0.0 | 0.00 | 0.00 | 0.00 | 95 | 1020.9 |
| 20260506145728 | 50 | 100 | 0.0 | 1.0 | 0.00 | 0.00 | 0.00 | 95 | 1020.6 |
| 20260506145225 | 50 | 103 | 1.0 | 1.0 | 0.00 | 0.00 | 0.00 | 95 | 1020.9 |
| 20260506144722 | 51 | 106 | 1.0 | 1.0 | 0.00 | 0.00 | 0.00 | 95 | 1020.6 |
| 20260506144219 | 51 | 135 | 2.0 | 3.0 | 0.00 | 0.00 | 0.00 | 95 | 1020.6 |
| 20260506143716 | 51 | 118 | 1.0 | 1.0 | 0.00 | 0.00 | 0.00 | 95 | 1020.9 |
| 20260506143214 | 50 | 125 | 0.0 | 1.0 | 0.00 | 0.00 | 0.00 | 95 | 1020.9 |
| 20260506142713 | 50 | 103 | 0.0 | 1.0 | 0.00 | 0.00 | 0.00 | 95 | 1020.9 |
| 20260506142210 | 50 | 107 | 0.0 | 0.0 | 0.00 | 0.00 | 0.00 | 94 | 1020.9 |
| 20260506141708 | 50 | 109 | 0.0 | 1.0 | 0.00 | 0.00 | 0.00 | 94 | 1020.9 |
| 20260506141206 | 50 | 103 | 0.0 | 1.0 | 0.00 | 0.00 | 0.00 | 94 | 1020.9 |
| 20260506140703 | 50 | 138 | 0.0 | 1.0 | 0.00 | 0.00 | 0.00 | 94 | 1020.9 |
| 20260506140200 | 50 | 107 | 1.0 | 3.0 | 0.00 | 0.00 | 0.00 | 94 | 1020.6 |
| 20260506135657 | 50 | 108 | 2.0 | 3.0 | 0.00 | 0.00 | 0.00 | 94 | 1020.6 |
| 20260506135153 | 50 | 126 | 1.0 | 3.0 | 0.00 | 0.00 | 0.00 | 94 | 1020.6 |
| 20260506134650 | 50 | 116 | 1.0 | 1.0 | 0.00 | 0.00 | 0.00 | 94 | 1020.6 |
| 20260506134146 | 50 | 160 | 1.0 | 1.0 | 0.00 | 0.00 | 0.00 | 94 | 1020.6 |
| 20260506133643 | 50 | 112 | 0.0 | 1.0 | 0.00 | 0.00 | 0.00 | 93 | 1020.6 |
| 20260506133140 | 50 | 129 | 1.0 | 3.0 | 0.00 | 0.00 | 0.00 | 93 | 1020.6 |
| 20260506132637 | 50 | 107 | 1.0 | 1.0 | 0.00 | 0.00 | 0.00 | 93 | 1020.6 |
| 20260506132134 | 50 | 118 | 0.0 | 1.0 | 0.00 | 0.00 | 0.00 | 93 | 1020.2 |
| 20260506131632 | 50 | 106 | 0.0 | 0.0 | 0.00 | 0.00 | 0.00 | 93 | 1020.6 |
| 20260506131128 | 50 | 106 | 0.0 | 0.0 | 0.00 | 0.00 | 0.00 | 93 | 1020.6 |
| 20260506130625 | 50 | 106 | 0.0 | 0.0 | 0.00 | 0.00 | 0.00 | 93 | 1020.6 |
| 20260506130122 | 50 | 106 | 0.0 | 1.0 | 0.00 | 0.00 | 0.00 | 92 | 1020.6 |
| 20260506125620 | 50 | 105 | 1.0 | 1.0 | 0.00 | 0.00 | 0.00 | 92 | 1020.6 |
| 20260506125118 | 50 | 98 | 0.0 | 0.0 | 0.00 | 0.00 | 0.00 | 92 | 1020.6 |
| 20260506124615 | 50 | 97 | 0.0 | 1.0 | 0.00 | 0.00 | 0.00 | 92 | 1020.2 |
| 20260506124113 | 50 | 97 | 0.0 | 1.0 | 0.00 | 0.00 | 0.00 | 92 | 1020.2 |
| 20260506123610 | 50 | 97 | 0.0 | 1.0 | 0.00 | 0.00 | 0.00 | 92 | 1020.6 |
| 20260506123109 | 50 | 97 | 0.0 | 1.0 | 0.00 | 0.00 | 0.00 | 91 | 1020.6 |
| 20260506122605 | 50 | 97 | 0.0 | 0.0 | 0.00 | 0.00 | 0.00 | 91 | 1020.6 |
| 20260506122103 | 50 | 97 | 1.0 | 1.0 | 0.00 | 0.00 | 0.00 | 91 | 1020.2 |
| 20260506121601 | 50 | 97 | 0.0 | 0.0 | 0.00 | 0.00 | 0.00 | 91 | 1020.2 |
| 20260506121057 | 50 | 97 | 0.0 | 2.0 | 0.00 | 0.00 | 0.00 | 91 | 1020.2 |
| 20260506120555 | 50 | 88 | 0.0 | 0.0 | 0.00 | 0.00 | 0.00 | 91 | 1020.6 |
| 20260506120052 | 50 | 24 | 1.0 | 2.0 | 0.00 | 0.00 | 0.00 | 91 | 1020.2 |
| 20260506115550 | 50 | 100 | 0.0 | 0.0 | 0.00 | 0.00 | 0.00 | 91 | 1020.2 |
| 20260506115048 | 50 | 99 | 0.0 | 0.0 | 0.00 | 0.00 | 0.00 | 91 | 1020.2 |
| 20260506114545 | 50 | 98 | 0.0 | 0.0 | 0.00 | 0.00 | 0.00 | 91 | 1020.2 |
| 20260506114043 | 50 | 102 | 0.0 | 1.0 | 0.00 | 0.00 | 0.00 | 91 | 1020.2 |
| 20260506113541 | 50 | 81 | 0.0 | 1.0 | 0.00 | 0.00 | 0.00 | 91 | 1020.2 |
| 20260506113038 | 50 | 106 | 0.0 | 0.0 | 0.00 | 0.00 | 0.00 | 91 | 1020.2 |
| 20260506112534 | 50 | 106 | 0.0 | 0.0 | 0.00 | 0.00 | 0.00 | 91 | 1020.2 |
| 20260506112032 | 50 | 106 | 0.0 | 0.0 | 0.00 | 0.00 | 0.00 | 91 | 1020.2 |
| 20260506111530 | 50 | 106 | 0.0 | 0.0 | 0.00 | 0.00 | 0.00 | 91 | 1020.2 |
| 20260506111027 | 50 | 101 | 0.0 | 0.0 | 0.00 | 0.00 | 0.00 | 91 | 1020.2 |
| 20260506110524 | 50 | 97 | 0.0 | 0.0 | 0.00 | 0.00 | 0.00 | 91 | 1019.9 |
| 20260506110021 | 50 | 97 | 0.0 | 0.0 | 0.00 | 0.00 | 0.00 | 91 | 1019.9 |
| 20260506105517 | 50 | 118 | 0.0 | 0.0 | 0.00 | 0.00 | 0.00 | 91 | 1019.9 |
| 20260506105015 | 50 | 118 | 0.0 | 0.0 | 0.00 | 0.00 | 0.00 | 91 | 1019.9 |
| 20260506104513 | 50 | 116 | 0.0 | 1.0 | 0.00 | 0.00 | 0.00 | 90 | 1019.6 |
| 20260506104011 | 50 | 113 | 0.0 | 1.0 | 0.00 | 0.00 | 0.00 | 90 | 1019.6 |
| 20260506103507 | 50 | 123 | 0.0 | 1.0 | 0.00 | 0.00 | 0.00 | 90 | 1019.6 |
| 20260506103004 | 50 | 140 | 2.0 | 2.0 | 0.00 | 0.00 | 0.00 | 90 | 1019.6 |
| 20260506102503 | 50 | 130 | 0.0 | 0.0 | 0.00 | 0.00 | 0.00 | 90 | 1019.6 |
| 20260506101959 | 50 | 140 | 0.0 | 2.0 | 0.00 | 0.00 | 0.00 | 90 | 1019.6 |
| 20260506101455 | 50 | 124 | 0.0 | 0.0 | 0.00 | 0.00 | 0.00 | 91 | 1019.6 |
| 20260506100953 | 50 | 113 | 0.0 | 1.0 | 0.00 | 0.00 | 0.00 | 91 | 1019.6 |
| 20260506100451 | 50 | 139 | 1.0 | 2.0 | 0.00 | 0.00 | 0.00 | 91 | 1019.2 |
| 20260506095949 | 50 | 94 | 0.0 | 1.0 | 0.00 | 0.00 | 0.00 | 92 | 1019.2 |
| 20260506095448 | 50 | 166 | 0.0 | 1.0 | 0.00 | 0.00 | 0.00 | 92 | 1019.6 |
| 20260506094943 | 50 | 174 | 0.0 | 1.0 | 0.00 | 0.00 | 0.00 | 92 | 1019.6 |
| 20260506094441 | 50 | 175 | 1.0 | 2.0 | 0.00 | 0.00 | 0.00 | 92 | 1019.6 |
| 20260506093939 | 50 | 182 | 0.0 | 1.0 | 0.00 | 0.00 | 0.00 | 92 | 1019.6 |
| 20260506093437 | 50 | 145 | 0.0 | 0.0 | 0.00 | 0.00 | 0.00 | 92 | 1019.2 |
| 20260506092934 | 50 | 156 | 0.0 | 1.0 | 0.00 | 0.00 | 0.00 | 93 | 1019.2 |
| 20260506092432 | 50 | 147 | 0.0 | 2.0 | 0.00 | 0.00 | 0.00 | 93 | 1019.6 |
| 20260506091928 | 50 | 150 | 0.0 | 2.0 | 0.00 | 0.00 | 0.00 | 93 | 1019.2 |
| 20260506091427 | 50 | 149 | 0.0 | 1.0 | 0.00 | 0.00 | 0.00 | 93 | 1019.6 |
| 20260506090924 | 50 | 150 | 0.0 | 2.0 | 0.00 | 0.00 | 0.00 | 93 | 1019.2 |
| 20260506090421 | 50 | 96 | 0.0 | 1.0 | 0.00 | 0.00 | 0.00 | 93 | 1019.2 |
| 20260506085918 | 50 | 121 | 1.0 | 1.0 | 0.00 | 0.00 | 0.00 | 93 | 1019.2 |
| 20260506085414 | 49 | 113 | 1.0 | 1.0 | 0.00 | 0.00 | 0.00 | 93 | 1019.6 |
| 20260506084910 | 49 | 48 | 0.0 | 2.0 | 0.00 | 0.00 | 0.00 | 93 | 1019.6 |
| 20260506084408 | 49 | 112 | 0.0 | 1.0 | 0.00 | 0.00 | 0.00 | 93 | 1019.2 |
| 20260506083904 | 49 | 114 | 0.0 | 0.0 | 0.00 | 0.00 | 0.00 | 93 | 1019.2 |
| 20260506083402 | 48 | 98 | 0.0 | 0.0 | 0.00 | 0.00 | 0.00 | 93 | 1019.6 |
| 20260506082859 | 48 | 96 | 0.0 | 0.0 | 0.00 | 0.00 | 0.00 | 93 | 1019.2 |
| 20260506082355 | 48 | 85 | 0.0 | 0.0 | 0.00 | 0.00 | 0.00 | 93 | 1019.2 |
| 20260506081851 | 48 | 89 | 0.0 | 1.0 | 0.00 | 0.00 | 0.00 | 93 | 1019.2 |
| 20260506081349 | 48 | 98 | 0.0 | 0.0 | 0.00 | 0.00 | 0.00 | 93 | 1019.2 |
| 20260506080847 | 48 | 93 | 0.0 | 0.0 | 0.00 | 0.00 | 0.00 | 93 | 1019.2 |
| 20260506080344 | 48 | 93 | 0.0 | 1.0 | 0.00 | 0.00 | 0.00 | 93 | 1019.2 |
| 20260506073322 | 48 | 147 | 0.0 | 0.0 | 0.00 | 0.00 | 0.00 | 92 | 1018.9 |
| 20260506072818 | 48 | 107 | 0.0 | 0.0 | 0.00 | 0.00 | 0.00 | 92 | 1018.5 |
| 20260506072316 | 49 | 123 | 0.0 | 0.0 | 0.00 | 0.00 | 0.00 | 91 | 1018.5 |
| 20260506071814 | 49 | 129 | 0.0 | 1.0 | 0.00 | 0.00 | 0.00 | 91 | 1018.5 |
| 20260506071312 | 49 | 75 | 1.0 | 2.0 | 0.00 | 0.00 | 0.00 | 91 | 1018.9 |
| 20260506070808 | 49 | 74 | 0.0 | 1.0 | 0.00 | 0.00 | 0.00 | 91 | 1018.5 |
| 20260506070305 | 49 | 98 | 0.0 | 1.0 | 0.00 | 0.00 | 0.00 | 91 | 1018.5 |
| 20260506062242 | 50 | 50 | 0.0 | 3.0 | 0.00 | 0.00 | 0.00 | 90 | 1018.5 |
| 20260506061738 | 50 | 318 | 1.0 | 4.0 | 0.00 | 0.00 | 0.00 | 90 | 1018.5 |
| 20260506061235 | 50 | 125 | 0.0 | 2.0 | 0.00 | 0.00 | 0.00 | 90 | 1018.5 |
| 20260506060733 | 50 | 317 | 1.0 | 1.0 | 0.00 | 0.00 | 0.00 | 90 | 1018.5 |
| 20260506060230 | 50 | 95 | 2.0 | 2.0 | 0.00 | 0.00 | 0.00 | 90 | 1018.5 |
| 20260506051156 | 51 | 70 | 1.0 | 7.0 | 0.00 | 0.00 | 0.00 | 89 | 1018.2 |
| 20260506050655 | 51 | 64 | 1.0 | 1.0 | 0.00 | 0.00 | 0.00 | 88 | 1018.2 |
| 20260506050152 | 51 | 1 | 1.0 | 2.0 | 0.00 | 0.00 | 0.00 | 88 | 1018.5 |
| 20260506044643 | 51 | 54 | 1.0 | 4.0 | 0.00 | 0.00 | 0.00 | 88 | 1018.2 |
| 20260506044140 | 51 | 45 | 1.0 | 2.0 | 0.00 | 0.00 | 0.00 | 88 | 1018.2 |
| 20260506043637 | 51 | 161 | 1.0 | 2.0 | 0.00 | 0.00 | 0.00 | 87 | 1018.2 |
| 20260506043135 | 51 | 232 | 1.0 | 2.0 | 0.00 | 0.00 | 0.00 | 87 | 1018.2 |
| 20260506042634 | 51 | 107 | 0.0 | 1.0 | 0.00 | 0.00 | 0.00 | 87 | 1018.2 |
| 20260506042131 | 51 | 2 | 0.0 | 1.0 | 0.00 | 0.00 | 0.00 | 87 | 1017.9 |
| 20260506041630 | 51 | 113 | 0.0 | 1.0 | 0.00 | 0.00 | 0.00 | 87 | 1017.9 |
| 20260506041126 | 51 | 127 | 0.0 | 1.0 | 0.00 | 0.00 | 0.00 | 86 | 1017.9 |
| 20260506040624 | 52 | 108 | 0.0 | 0.0 | 0.00 | 0.00 | 0.00 | 86 | 1017.9 |
| 20260506040120 | 52 | 60 | 0.0 | 1.0 | 0.00 | 0.00 | 0.00 | 86 | 1017.5 |
| 20260506035617 | 52 | 138 | 0.0 | 2.0 | 0.00 | 0.00 | 0.00 | 85 | 1017.5 |
| 20260506035114 | 52 | 261 | 0.0 | 1.0 | 0.00 | 0.00 | 0.00 | 85 | 1017.9 |
| 20260506034611 | 52 | 96 | 0.0 | 1.0 | 0.00 | 0.00 | 0.00 | 85 | 1017.5 |
| 20260506034108 | 53 | 122 | 0.0 | 1.0 | 0.00 | 0.00 | 0.00 | 84 | 1017.5 |
| 20260506033605 | 53 | 99 | 0.0 | 1.0 | 0.00 | 0.00 | 0.00 | 84 | 1017.5 |
| 20260506033102 | 53 | 142 | 0.0 | 0.0 | 0.00 | 0.00 | 0.00 | 83 | 1017.5 |
| 20260506032600 | 54 | 156 | 0.0 | 1.0 | 0.00 | 0.00 | 0.00 | 82 | 1017.2 |
| 20260506032056 | 54 | 105 | 0.0 | 1.0 | 0.00 | 0.00 | 0.00 | 82 | 1017.2 |
| 20260506031554 | 54 | 133 | 0.0 | 1.0 | 0.00 | 0.00 | 0.00 | 82 | 1017.5 |
| 20260506031050 | 54 | 56 | 1.0 | 1.0 | 0.00 | 0.00 | 0.00 | 81 | 1017.5 |
| 20260506030549 | 55 | 110 | 0.0 | 1.0 | 0.00 | 0.00 | 0.00 | 81 | 1017.5 |
| 20260506030046 | 55 | 117 | 0.0 | 1.0 | 0.00 | 0.00 | 0.00 | 80 | 1017.2 |
| 20260506025543 | 55 | 109 | 0.0 | 1.0 | 0.00 | 0.00 | 0.00 | 80 | 1017.5 |